Regional Weather Roundup
Issued by NWS Albany, NY

Home | Current Version | Previous Version | Graphics & Text | Print | Product List | Glossary Off
Versions: 1 2 3 4 5 6 7 8 9 10 11 12 13 14 15 16 17 18 19 20 21 22 23 24 25 26 27

000
ASUS41 KALY 260510
RWRALY

NEW YORK STATE HOURLY WEATHER ROUNDUP
NATIONAL WEATHER SERVICE ALBANY NY
100 AM EDT TUE SEP 26 2017

NOTE: "FAIR" INDICATES FEW OR NO CLOUDS BELOW 12,000 FEET WITH NO
SIGNIFICANT WEATHER AND/OR NO OBSTRUCTIONS TO VISIBILITY.

NYZ032-033-038>043-046>054-057>066-NYZ062>081-082-084-260600-
EAST


CITY           SKY/WX    TMP DP  RH WIND       PRES   REMARKS
ALBANY         PTCLDY    70  67  90 CALM      30.03R
GLENS FALLS    FOG       64  63  96 CALM      30.02S VSB 3/4
POUGHKEEPSIE   CLEAR     68  64  87 CALM      30.02S
NEWBURGH       CLEAR     70  66  88 CALM      30.05S
MONTGOMERY     CLEAR     67  65  93 CALM      30.03F
WHITE PLAINS   CLEAR     66  63  90 CALM      30.04S
ISLIP          CLOUDY    68  67  96 E6        30.04R
NEW YORK CITY  PTCLDY    71  66  84 SE5       30.02S
CENTRAL PARK   CLEAR     71  65  81 CALM      30.05F
$$

NYZ005>009-017-018-044>046-055-056-260600-
CENTRAL


CITY           SKY/WX    TMP DP  RH WIND       PRES   REMARKS
FULTON         PTCLDY    66  64  93 CALM      30.01S FOG
SYRACUSE       PTCLDY    68  66  93 SE5       30.00F
ROME           PTCLDY    67  67 100 CALM      30.03F
ELMIRA         PTCLDY    64  64 100 CALM      30.04S
BINGHAMTON     PTCLDY    68  63  84 CALM      30.07S
MONTICELLO     CLEAR     68  66  93 N5        30.09S
$$

NYZ026>034-041>043-087-260600-
NORTH


CITY           SKY/WX    TMP DP  RH WIND       PRES   REMARKS
WATERTOWN      CLEAR     65  64  97 E5        30.00S FOG
FORT DRUM      NOT AVBL
OGDENSBURG     FOG       63  61  96 CALM      30.01R VSB 3/4
MASSENA        PTCLDY    64  63  96 CALM      30.01S
SARANAC LAKE   PTCLDY    53  53 100 CALM      30.07F FOG
PLATTSBURGH    CLEAR     64  62  93 CALM      30.00S
$$

NYZ001>004-010>016-019>021-085-260600-
WEST


CITY           SKY/WX    TMP DP  RH WIND       PRES   REMARKS
NIAGARA FALLS  CLOUDY    72  66  81 CALM      30.00R
BUFFALO        CLOUDY    73  66  78 SE5       30.00F
DUNKIRK        PTCLDY    68  66  93 CALM      30.01R
JAMESTOWN      CLOUDY    68  66  93 S3        30.07S
WELLSVILLE     MOCLDY    71  61  70 VRB3      30.10F
ROCHESTER      PTCLDY    69  66  90 CALM      30.01S
PENN YAN       PTCLDY    69  65  86 CALM      30.04S
$$

             KEY
       WCI = WIND CHILL INDEX
       VSB = VISIBILITY
       HX  = HEAT INDEX
$$




USA.gov is the U.S. government's official web portal to all federal, state and local government web resources and services.